Location: Castillon
(43.0896°N, 0.2156°E)
Time: 20:01:41
(UTC+00:00)

H-2A R/B - Pass Details

Date: 16 June 2021
Orbit: 574 x 597 km, 98.2° (Epoch: 01 August)

Event Time Altitude Azimuth Distance (km) Brightness Sun altitude
Rises 22:01:50 0° 12° (NNE) 2,796 7.7 -18.2°
Reaches altitude 10° 22:03:59 10° 13° (NNE) 1,892 6.7 -18.4°
Maximum altitude 22:08:05 88° 287° (WNW) 581 3.3 -18.7°
Enters shadow 22:09:42 36° 196° (SSW) 914 4.0 -18.8°
